Wetterdaten: Mittwoch, 20.01.2016
Datum Zeit Temp. A. Feuchte A. Luftdruck Regen Wind Richtung Richtung Sonnenschein ET UV Solar Taupunkt Windchill Windben Empfang
20.01.2016 00:00 -6,1 C 89 % 1017,9 hPa 0,0 l/m 0,1 km/h (0 Bft) O-SO 119 0 min 0,000 mm 0,0 UV-I 0 W/m -7,6 C -6,1 C 1,6 km/h (1 Bft) 99,15 %
20.01.2016 00:05 -6,0 C 89 % 1017,8 hPa 0,0 l/m 0,3 km/h (0 Bft) O-SO 119 0 min 0,000 mm 0,0 UV-I 0 W/m -7,5 C -6,0 C 1,6 km/h (1 Bft) 100,00 %
20.01.2016 00:10 -6,0 C 89 % 1017,9 hPa 0,0 l/m 1,3 km/h (1 Bft) S-SW 208 0 min 0,000 mm 0,0 UV-I 0 W/m -7,5 C -6,0 C 3,2 km/h (1 Bft) 99,06 %
20.01.2016 00:15 -6,0 C 89 % 1017,9 hPa 0,0 l/m 0,2 km/h (0 Bft) SW 220 0 min 0,000 mm 0,0 UV-I 0 W/m -7,5 C -6,0 C 3,2 km/h (1 Bft) 95,87 %
20.01.2016 00:20 -5,9 C 89 % 1018,0 hPa 0,0 l/m 2,0 km/h (1 Bft) W-SW 248 0 min 0,000 mm 0,0 UV-I 0 W/m -7,4 C -5,9 C 3,2 km/h (1 Bft) 96,61 %
20.01.2016 00:25 -5,9 C 89 % 1017,8 hPa 0,0 l/m 0,3 km/h (0 Bft) W 279 0 min 0,000 mm 0,0 UV-I 0 W/m -7,4 C -5,9 C 4,8 km/h (1 Bft) 96,58 %
20.01.2016 00:30 -5,9 C 89 % 1017,9 hPa 0,0 l/m 1,3 km/h (1 Bft) W 279 0 min 0,000 mm 0,0 UV-I 0 W/m -7,4 C -5,9 C 3,2 km/h (1 Bft) 94,92 %
20.01.2016 00:35 -5,9 C 88 % 1017,8 hPa 0,0 l/m 1,1 km/h (1 Bft) W 279 0 min 0,000 mm 0,0 UV-I 0 W/m -7,6 C -5,9 C 3,2 km/h (1 Bft) 96,69 %
20.01.2016 00:40 -5,9 C 89 % 1017,7 hPa 0,0 l/m 1,1 km/h (1 Bft) W 279 0 min 0,000 mm 0,0 UV-I 0 W/m -7,4 C -5,9 C 3,2 km/h (1 Bft) 98,29 %
20.01.2016 00:45 -5,9 C 89 % 1017,7 hPa 0,0 l/m 1,5 km/h (1 Bft) W-NW 292 0 min 0,000 mm 0,0 UV-I 0 W/m -7,4 C -5,9 C 4,8 km/h (1 Bft) 96,69 %
20.01.2016 00:50 -5,9 C 88 % 1017,7 hPa 0,0 l/m 1,8 km/h (1 Bft) W-NW 292 0 min 0,000 mm 0,0 UV-I 0 W/m -7,6 C -5,9 C 4,8 km/h (1 Bft) 100,00 %
20.01.2016 00:55 -5,9 C 88 % 1017,6 hPa 0,0 l/m 0,7 km/h (0 Bft) W-NW 293 0 min 0,000 mm 0,0 UV-I 0 W/m -7,6 C -5,9 C 3,2 km/h (1 Bft) 99,15 %
20.01.2016 01:00 -5,8 C 89 % 1017,6 hPa 0,0 l/m 1,6 km/h (1 Bft) W-NW 293 0 min 0,000 mm 0,0 UV-I 0 W/m -7,3 C -5,8 C 4,8 km/h (1 Bft) 100,00 %
20.01.2016 01:05 -5,8 C 88 % 1017,7 hPa 0,0 l/m 0,4 km/h (0 Bft) W-NW 293 0 min 0,000 mm 0,0 UV-I 0 W/m -7,5 C -5,8 C 1,6 km/h (1 Bft) 100,00 %
20.01.2016 01:10 -5,9 C 88 % 1017,7 hPa 0,0 l/m 0,8 km/h (0 Bft) W-NW 293 0 min 0,000 mm 0,0 UV-I 0 W/m -7,6 C -5,9 C 3,2 km/h (1 Bft) 99,17 %
20.01.2016 01:15 -5,9 C 88 % 1017,6 hPa 0,0 l/m 1,8 km/h (1 Bft) W-NW 293 0 min 0,000 mm 0,0 UV-I 0 W/m -7,6 C -5,9 C 3,2 km/h (1 Bft) 99,06 %
20.01.2016 01:20 -5,8 C 88 % 1017,7 hPa 0,0 l/m 0,5 km/h (0 Bft) W-NW 293 0 min 0,000 mm 0,0 UV-I 0 W/m -7,5 C -5,8 C 3,2 km/h (1 Bft) 97,44 %
20.01.2016 01:25 -5,8 C 88 % 1017,6 hPa 0,0 l/m 0,8 km/h (0 Bft) W-NW 293 0 min 0,000 mm 0,0 UV-I 0 W/m -7,5 C -5,8 C 3,2 km/h (1 Bft) 99,17 %
20.01.2016 01:30 -5,8 C 88 % 1017,5 hPa 0,0 l/m 0,2 km/h (0 Bft) W-NW 293 0 min 0,000 mm 0,0 UV-I 0 W/m -7,5 C -5,8 C 1,6 km/h (1 Bft) 99,17 %
20.01.2016 01:35 -5,8 C 88 % 1017,5 hPa 0,0 l/m 0,7 km/h (0 Bft) W-NW 292 0 min 0,000 mm 0,0 UV-I 0 W/m -7,5 C -5,8 C 3,2 km/h (1 Bft) 98,35 %
20.01.2016 01:40 -5,8 C 88 % 1017,6 hPa 0,0 l/m 0,9 km/h (0 Bft) W-NW 292 0 min 0,000 mm 0,0 UV-I 0 W/m -7,5 C -5,8 C 3,2 km/h (1 Bft) 99,08 %
20.01.2016 01:45 -5,8 C 88 % 1017,7 hPa 0,0 l/m 2,0 km/h (1 Bft) W-NW 292 0 min 0,000 mm 0,0 UV-I 0 W/m -7,5 C -5,8 C 4,8 km/h (1 Bft) 100,00 %
20.01.2016 01:50 -5,8 C 88 % 1017,7 hPa 0,0 l/m 1,4 km/h (1 Bft) W-SW 257 0 min 0,000 mm 0,0 UV-I 0 W/m -7,5 C -5,8 C 4,8 km/h (1 Bft) 100,00 %
20.01.2016 01:55 -5,7 C 88 % 1017,7 hPa 0,0 l/m 3,2 km/h (1 Bft) S 179 0 min 0,000 mm 0,0 UV-I 0 W/m -7,4 C -5,7 C 6,4 km/h (2 Bft) 100,00 %
20.01.2016 02:00 -5,7 C 88 % 1017,7 hPa 0,0 l/m 3,9 km/h (1 Bft) SW 225 0 min 0,000 mm 0,0 UV-I 0 W/m -7,4 C -5,7 C 6,4 km/h (2 Bft) 98,29 %
20.01.2016 02:05 -5,7 C 88 % 1017,7 hPa 0,0 l/m 4,8 km/h (1 Bft) SW 228 0 min 0,000 mm 0,0 UV-I 0 W/m -7,4 C -5,7 C 6,4 km/h (2 Bft) 100,00 %
20.01.2016 02:10 -5,7 C 88 % 1017,6 hPa 0,0 l/m 3,7 km/h (1 Bft) W 266 0 min 0,000 mm 0,0 UV-I 0 W/m -7,4 C -5,7 C 6,4 km/h (2 Bft) 97,50 %
20.01.2016 02:15 -5,7 C 88 % 1017,8 hPa 0,0 l/m 2,2 km/h (1 Bft) W 260 0 min 0,000 mm 0,0 UV-I 0 W/m -7,4 C -5,7 C 4,8 km/h (1 Bft) 96,67 %
20.01.2016 02:20 -5,7 C 88 % 1018,0 hPa 0,0 l/m 3,0 km/h (1 Bft) W 276 0 min 0,000 mm 0,0 UV-I 0 W/m -7,4 C -5,7 C 9,7 km/h (2 Bft) 97,39 %
20.01.2016 02:25 -5,7 C 89 % 1018,0 hPa 0,0 l/m 0,7 km/h (0 Bft) W 279 0 min 0,000 mm 0,0 UV-I 0 W/m -7,2 C -5,7 C 3,2 km/h (1 Bft) 96,61 %
20.01.2016 02:30 -5,8 C 89 % 1017,9 hPa 0,0 l/m 1,6 km/h (1 Bft) W 279 0 min 0,000 mm 0,0 UV-I 0 W/m -7,3 C -5,8 C 3,2 km/h (1 Bft) 97,46 %
20.01.2016 02:35 -5,8 C 89 % 1018,2 hPa 0,0 l/m 1,8 km/h (1 Bft) W 264 0 min 0,000 mm 0,0 UV-I 0 W/m -7,3 C -5,8 C 4,8 km/h (1 Bft) 97,52 %
20.01.2016 02:40 -5,7 C 89 % 1018,0 hPa 0,0 l/m 1,5 km/h (1 Bft) W 264 0 min 0,000 mm 0,0 UV-I 0 W/m -7,2 C -5,7 C 3,2 km/h (1 Bft) 95,76 %
20.01.2016 02:45 -5,8 C 89 % 1018,1 hPa 0,0 l/m 1,2 km/h (1 Bft) W 263 0 min 0,000 mm 0,0 UV-I 0 W/m -7,3 C -5,8 C 4,8 km/h (1 Bft) 97,20 %
20.01.2016 02:50 -5,8 C 89 % 1017,9 hPa 0,0 l/m 3,0 km/h (1 Bft) SW 230 0 min 0,000 mm 0,0 UV-I 0 W/m -7,3 C -5,8 C 4,8 km/h (1 Bft) 98,33 %
20.01.2016 02:55 -5,8 C 89 % 1017,9 hPa 0,0 l/m 1,8 km/h (1 Bft) SW 230 0 min 0,000 mm 0,0 UV-I 0 W/m -7,3 C -5,8 C 4,8 km/h (1 Bft) 99,15 %
20.01.2016 03:00 -5,8 C 89 % 1017,7 hPa 0,0 l/m 2,9 km/h (1 Bft) SW 219 0 min 0,000 mm 0,0 UV-I 0 W/m -7,3 C -5,8 C 4,8 km/h (1 Bft) 100,00 %
20.01.2016 03:05 -5,8 C 89 % 1017,7 hPa 0,0 l/m 2,7 km/h (1 Bft) S-SW 210 0 min 0,000 mm 0,0 UV-I 0 W/m -7,3 C -5,8 C 6,4 km/h (2 Bft) 99,15 %
20.01.2016 03:10 -5,9 C 89 % 1017,7 hPa 0,0 l/m 2,5 km/h (1 Bft) W-SW 247 0 min 0,000 mm 0,0 UV-I 0 W/m -7,4 C -5,9 C 4,8 km/h (1 Bft) 97,46 %
20.01.2016 03:15 -6,0 C 89 % 1017,7 hPa 0,0 l/m 3,1 km/h (1 Bft) SW 234 0 min 0,000 mm 0,0 UV-I 0 W/m -7,5 C -6,0 C 4,8 km/h (1 Bft) 98,31 %
20.01.2016 03:20 -6,1 C 89 % 1017,7 hPa 0,0 l/m 1,9 km/h (1 Bft) SW 234 0 min 0,000 mm 0,0 UV-I 0 W/m -7,6 C -6,1 C 4,8 km/h (1 Bft) 99,15 %
20.01.2016 03:25 -6,1 C 90 % 1017,8 hPa 0,0 l/m 1,6 km/h (1 Bft) SW 234 0 min 0,000 mm 0,0 UV-I 0 W/m -7,5 C -6,1 C 3,2 km/h (1 Bft) 97,46 %
20.01.2016 03:30 -6,2 C 90 % 1017,8 hPa 0,0 l/m 3,4 km/h (1 Bft) S 190 0 min 0,000 mm 0,0 UV-I 0 W/m -7,6 C -6,2 C 6,4 km/h (2 Bft) 98,29 %
20.01.2016 03:35 -6,2 C 90 % 1017,8 hPa 0,0 l/m 4,1 km/h (1 Bft) S 188 0 min 0,000 mm 0,0 UV-I 0 W/m -7,6 C -6,2 C 6,4 km/h (2 Bft) 100,00 %
20.01.2016 03:40 -6,1 C 90 % 1017,8 hPa 0,0 l/m 2,3 km/h (1 Bft) S 188 0 min 0,000 mm 0,0 UV-I 0 W/m -7,5 C -6,1 C 4,8 km/h (1 Bft) 99,08 %
20.01.2016 03:45 -6,1 C 91 % 1017,9 hPa 0,0 l/m 2,5 km/h (1 Bft) SW 215 0 min 0,000 mm 0,0 UV-I 0 W/m -7,3 C -6,1 C 6,4 km/h (2 Bft) 99,15 %
20.01.2016 03:50 -6,0 C 91 % 1017,8 hPa 0,0 l/m 3,7 km/h (1 Bft) S 184 0 min 0,000 mm 0,0 UV-I 0 W/m -7,2 C -6,0 C 6,4 km/h (2 Bft) 98,35 %
20.01.2016 03:55 -6,0 C 91 % 1017,8 hPa 0,0 l/m 3,2 km/h (1 Bft) W-SW 244 0 min 0,000 mm 0,0 UV-I 0 W/m -7,2 C -6,0 C 4,8 km/h (1 Bft) 99,15 %
20.01.2016 04:00 -6,0 C 91 % 1017,9 hPa 0,0 l/m 2,8 km/h (1 Bft) S-SW 200 0 min 0,000 mm 0,0 UV-I 0 W/m -7,2 C -6,0 C 4,8 km/h (1 Bft) 100,00 %
20.01.2016 04:05 -5,9 C 91 % 1017,9 hPa 0,0 l/m 2,5 km/h (1 Bft) S-SW 204 0 min 0,000 mm 0,0 UV-I 0 W/m -7,1 C -5,9 C 4,8 km/h (1 Bft) 100,00 %
20.01.2016 04:10 -5,8 C 91 % 1017,8 hPa 0,0 l/m 2,1 km/h (1 Bft) S-SW 205 0 min 0,000 mm 0,0 UV-I 0 W/m -7,0 C -5,8 C 3,2 km/h (1 Bft) 99,15 %
20.01.2016 04:15 -5,8 C 91 % 1017,8 hPa 0,0 l/m 1,1 km/h (1 Bft) S-SW 205 0 min 0,000 mm 0,0 UV-I 0 W/m -7,0 C -5,8 C 3,2 km/h (1 Bft) 96,67 %
20.01.2016 04:20 -5,8 C 91 % 1017,8 hPa 0,0 l/m 0,3 km/h (0 Bft) S-SW 205 0 min 0,000 mm 0,0 UV-I 0 W/m -7,0 C -5,8 C 3,2 km/h (1 Bft) 96,77 %
20.01.2016 04:25 -5,8 C 90 % 1017,9 hPa 0,0 l/m 1,4 km/h (1 Bft) S-SW 205 0 min 0,000 mm 0,0 UV-I 0 W/m -7,2 C -5,8 C 3,2 km/h (1 Bft) 97,22 %
20.01.2016 04:30 -5,8 C 91 % 1018,0 hPa 0,0 l/m 0,1 km/h (0 Bft) S-SW 205 0 min 0,000 mm 0,0 UV-I 0 W/m -7,0 C -5,8 C 1,6 km/h (1 Bft) 96,61 %
20.01.2016 04:35 -5,9 C 91 % 1018,0 hPa 0,0 l/m 0,0 km/h (0 Bft) S-SW 204 0 min 0,000 mm 0,0 UV-I 0 W/m -7,1 C -5,9 C 1,6 km/h (1 Bft) 95,87 %
20.01.2016 04:40 -5,9 C 91 % 1018,0 hPa 0,0 l/m 0,3 km/h (0 Bft) S-SW 205 0 min 0,000 mm 0,0 UV-I 0 W/m -7,1 C -5,9 C 1,6 km/h (1 Bft) 96,67 %
20.01.2016 04:45 -6,1 C 91 % 1018,0 hPa 0,0 l/m 0,0 km/h (0 Bft) S-SW 205 0 min 0,000 mm 0,0 UV-I 0 W/m -7,3 C -6,1 C 0,0 km/h (0 Bft) 99,15 %
20.01.2016 04:50 -6,1 C 92 % 1018,0 hPa 0,0 l/m 0,2 km/h (0 Bft) S-SW 205 0 min 0,000 mm 0,0 UV-I 0 W/m -7,2 C -6,1 C 1,6 km/h (1 Bft) 99,07 %
20.01.2016 04:55 -5,9 C 92 % 1018,1 hPa 0,0 l/m 0,1 km/h (0 Bft) S-SW 205 0 min 0,000 mm 0,0 UV-I 0 W/m -7,0 C -5,9 C 1,6 km/h (1 Bft) 98,31 %
20.01.2016 05:00 -5,9 C 92 % 1018,2 hPa 0,0 l/m 0,3 km/h (0 Bft) S-SW 205 0 min 0,000 mm 0,0 UV-I 0 W/m -7,0 C -5,9 C 1,6 km/h (1 Bft) 98,31 %
20.01.2016 05:05 -5,9 C 92 % 1018,0 hPa 0,0 l/m 0,2 km/h (0 Bft) S-SW 205 0 min 0,000 mm 0,0 UV-I 0 W/m -7,0 C -5,9 C 1,6 km/h (1 Bft) 97,44 %
20.01.2016 05:10 -5,9 C 92 % 1018,1 hPa 0,0 l/m 0,1 km/h (0 Bft) S-SW 205 0 min 0,000 mm 0,0 UV-I 0 W/m -7,0 C -5,9 C 1,6 km/h (1 Bft) 99,17 %
20.01.2016 05:15 -5,9 C 91 % 1018,0 hPa 0,0 l/m 0,1 km/h (0 Bft) S-SW 205 0 min 0,000 mm 0,0 UV-I 0 W/m -7,1 C -5,9 C 1,6 km/h (1 Bft) 98,33 %
20.01.2016 05:20 -6,0 C 91 % 1018,0 hPa 0,0 l/m 0,2 km/h (0 Bft) S-SW 205 0 min 0,000 mm 0,0 UV-I 0 W/m -7,2 C -6,0 C 1,6 km/h (1 Bft) 100,00 %
20.01.2016 05:25 -6,0 C 91 % 1018,1 hPa 0,0 l/m 1,6 km/h (1 Bft) S-SW 202 0 min 0,000 mm 0,0 UV-I 0 W/m -7,2 C -6,0 C 4,8 km/h (1 Bft) 100,00 %
20.01.2016 05:29 -6,0 C 91 % 1018,1 hPa 0,0 l/m 1,4 km/h (1 Bft) S-SW 205 0 min 0,000 mm 0,0 UV-I 0 W/m -7,2 C -6,0 C 1,6 km/h (1 Bft) 100,00 %
20.01.2016 05:35 -5,9 C 91 % 1018,0 hPa 0,0 l/m 2,9 km/h (1 Bft) S-SW 204 0 min 0,000 mm 0,0 UV-I 0 W/m -7,1 C -5,9 C 4,8 km/h (1 Bft) 100,00 %
20.01.2016 05:40 -5,9 C 91 % 1017,9 hPa 0,0 l/m 3,6 km/h (1 Bft) W-SW 253 0 min 0,000 mm 0,0 UV-I 0 W/m -7,1 C -5,9 C 9,7 km/h (2 Bft) 99,07 %
20.01.2016 05:45 -5,8 C 90 % 1018,0 hPa 0,0 l/m 3,1 km/h (1 Bft) W-SW 254 0 min 0,000 mm 0,0 UV-I 0 W/m -7,2 C -5,8 C 4,8 km/h (1 Bft) 100,00 %
20.01.2016 05:50 -5,8 C 91 % 1018,1 hPa 0,0 l/m 1,9 km/h (1 Bft) W-SW 253 0 min 0,000 mm 0,0 UV-I 0 W/m -7,0 C -5,8 C 4,8 km/h (1 Bft) 99,19 %
20.01.2016 05:55 -5,7 C 90 % 1018,1 hPa 0,0 l/m 1,9 km/h (1 Bft) W-SW 253 0 min 0,000 mm 0,0 UV-I 0 W/m -7,1 C -5,7 C 4,8 km/h (1 Bft) 100,00 %
20.01.2016 06:00 -5,8 C 90 % 1018,1 hPa 0,0 l/m 1,0 km/h (0 Bft) W-SW 253 0 min 0,000 mm 0,0 UV-I 0 W/m -7,2 C -5,8 C 3,2 km/h (1 Bft) 98,35 %
20.01.2016 06:05 -5,9 C 91 % 1018,1 hPa 0,0 l/m 0,3 km/h (0 Bft) W-SW 253 0 min 0,000 mm 0,0 UV-I 0 W/m -7,1 C -5,9 C 1,6 km/h (1 Bft) 98,33 %
20.01.2016 06:10 -5,9 C 91 % 1018,1 hPa 0,0 l/m 0,8 km/h (0 Bft) W-SW 253 0 min 0,000 mm 0,0 UV-I 0 W/m -7,1 C -5,9 C 1,6 km/h (1 Bft) 97,39 %
20.01.2016 06:15 -5,8 C 91 % 1018,2 hPa 0,0 l/m 1,8 km/h (1 Bft) W-SW 253 0 min 0,000 mm 0,0 UV-I 0 W/m -7,0 C -5,8 C 4,8 km/h (1 Bft) 97,46 %
20.01.2016 06:20 -5,7 C 90 % 1018,2 hPa 0,0 l/m 2,6 km/h (1 Bft) SW 233 0 min 0,000 mm 0,0 UV-I 0 W/m -7,1 C -5,7 C 4,8 km/h (1 Bft) 95,37 %
20.01.2016 06:25 -5,6 C 90 % 1018,2 hPa 0,0 l/m 2,6 km/h (1 Bft) S-SW 205 0 min 0,000 mm 0,0 UV-I 0 W/m -7,0 C -5,6 C 6,4 km/h (2 Bft) 97,69 %
20.01.2016 06:30 -5,6 C 90 % 1018,3 hPa 0,0 l/m 2,9 km/h (1 Bft) SW 223 0 min 0,000 mm 0,0 UV-I 0 W/m -7,0 C -5,6 C 4,8 km/h (1 Bft) 97,22 %
20.01.2016 06:35 -5,5 C 90 % 1018,3 hPa 0,0 l/m 3,0 km/h (1 Bft) W 262 0 min 0,000 mm 0,0 UV-I 0 W/m -6,9 C -5,5 C 8,0 km/h (2 Bft) 97,58 %
20.01.2016 06:40 -5,4 C 89 % 1018,4 hPa 0,0 l/m 4,1 km/h (1 Bft) W 268 0 min 0,000 mm 0,0 UV-I 0 W/m -6,9 C -5,4 C 6,4 km/h (2 Bft) 96,69 %
20.01.2016 06:45 -5,4 C 89 % 1018,4 hPa 0,0 l/m 1,2 km/h (1 Bft) W 268 0 min 0,000 mm 0,0 UV-I 0 W/m -6,9 C -5,4 C 4,8 km/h (1 Bft) 99,07 %
20.01.2016 06:50 -5,4 C 89 % 1018,4 hPa 0,0 l/m 3,6 km/h (1 Bft) SW 234 0 min 0,000 mm 0,0 UV-I 0 W/m -6,9 C -5,4 C 6,4 km/h (2 Bft) 100,00 %
20.01.2016 06:55 -5,4 C 89 % 1018,4 hPa 0,0 l/m 1,9 km/h (1 Bft) W-SW 239 0 min 0,000 mm 0,0 UV-I 0 W/m -6,9 C -5,4 C 3,2 km/h (1 Bft) 100,00 %
20.01.2016 07:00 -5,4 C 89 % 1018,5 hPa 0,0 l/m 3,6 km/h (1 Bft) SW 232 0 min 0,000 mm 0,0 UV-I 0 W/m -6,9 C -5,4 C 8,0 km/h (2 Bft) 99,19 %
20.01.2016 07:05 -5,3 C 89 % 1018,5 hPa 0,0 l/m 4,3 km/h (1 Bft) W 272 0 min 0,000 mm 0,0 UV-I 0 W/m -6,8 C -5,3 C 6,4 km/h (2 Bft) 100,00 %
20.01.2016 07:10 -5,3 C 89 % 1018,5 hPa 0,0 l/m 4,3 km/h (1 Bft) W-SW 258 0 min 0,000 mm 0,0 UV-I 0 W/m -6,8 C -5,3 C 8,0 km/h (2 Bft) 100,00 %
20.01.2016 07:15 -5,3 C 89 % 1018,6 hPa 0,0 l/m 4,6 km/h (1 Bft) W-NW 288 0 min 0,000 mm 0,0 UV-I 0 W/m -6,8 C -5,3 C 8,0 km/h (2 Bft) 100,00 %
20.01.2016 07:20 -5,3 C 89 % 1018,7 hPa 0,0 l/m 3,9 km/h (1 Bft) W 259 0 min 0,000 mm 0,0 UV-I 0 W/m -6,8 C -5,3 C 9,7 km/h (2 Bft) 100,00 %
20.01.2016 07:25 -5,3 C 89 % 1018,7 hPa 0,0 l/m 2,5 km/h (1 Bft) NW 306 0 min 0,000 mm 0,0 UV-I 0 W/m -6,8 C -5,3 C 6,4 km/h (2 Bft) 100,00 %
20.01.2016 07:30 -5,3 C 89 % 1018,8 hPa 0,0 l/m 3,7 km/h (1 Bft) W 272 0 min 0,000 mm 0,0 UV-I 0 W/m -6,8 C -5,3 C 4,8 km/h (1 Bft) 99,11 %
20.01.2016 07:35 -5,3 C 89 % 1018,8 hPa 0,0 l/m 4,5 km/h (1 Bft) W-SW 254 0 min 0,000 mm 0,0 UV-I 0 W/m -6,8 C -5,3 C 8,0 km/h (2 Bft) 100,00 %
20.01.2016 07:40 -5,4 C 89 % 1018,9 hPa 0,0 l/m 4,0 km/h (1 Bft) S-SW 211 0 min 0,000 mm 0,0 UV-I 0 W/m -6,9 C -5,4 C 9,7 km/h (2 Bft) 99,06 %
20.01.2016 07:45 -5,5 C 89 % 1018,9 hPa 0,0 l/m 2,3 km/h (1 Bft) W-SW 246 0 min 0,000 mm 0,0 UV-I 2 W/m -7,0 C -5,5 C 4,8 km/h (1 Bft) 96,69 %
20.01.2016 07:50 -5,7 C 89 % 1019,0 hPa 0,0 l/m 2,6 km/h (1 Bft) W-SW 246 0 min 0,000 mm 0,0 UV-I 5 W/m -7,2 C -5,7 C 4,8 km/h (1 Bft) 100,00 %
20.01.2016 07:55 -5,8 C 90 % 1019,0 hPa 0,0 l/m 2,9 km/h (1 Bft) SW 224 0 min 0,000 mm 0,0 UV-I 7 W/m -7,2 C -5,8 C 6,4 km/h (2 Bft) 100,00 %
20.01.2016 08:00 -5,9 C 90 % 1019,1 hPa 0,0 l/m 3,1 km/h (1 Bft) W-SW 243 0 min 0,000 mm 0,0 UV-I 9 W/m -7,3 C -5,9 C 6,4 km/h (2 Bft) 99,19 %
20.01.2016 08:05 -6,1 C 90 % 1019,0 hPa 0,0 l/m 2,2 km/h (1 Bft) W-SW 258 0 min 0,000 mm 0,0 UV-I 12 W/m -7,5 C -6,1 C 4,8 km/h (1 Bft) 100,00 %
20.01.2016 08:10 -6,2 C 90 % 1019,1 hPa 0,0 l/m 2,8 km/h (1 Bft) W-SW 244 0 min 0,000 mm 0,0 UV-I 15 W/m -7,6 C -6,2 C 4,8 km/h (1 Bft) 97,58 %
20.01.2016 08:15 -6,3 C 91 % 1019,3 hPa 0,0 l/m 3,0 km/h (1 Bft) W-SW 244 0 min 0,000 mm 0,0 UV-I 22 W/m -7,5 C -6,3 C 4,8 km/h (1 Bft) 96,67 %
20.01.2016 08:20 -6,4 C 91 % 1019,3 hPa 0,0 l/m 2,7 km/h (1 Bft) W-SW 244 0 min 0,000 mm 0,0 UV-I 26 W/m -7,6 C -6,4 C 6,4 km/h (2 Bft) 97,32 %
20.01.2016 08:25 -6,5 C 91 % 1019,3 hPa 0,0 l/m 2,7 km/h (1 Bft) W-SW 244 0 min 0,000 mm 0,0 UV-I 27 W/m -7,7 C -6,5 C 4,8 km/h (1 Bft) 95,76 %
20.01.2016 08:30 -6,7 C 92 % 1019,4 hPa 0,0 l/m 1,8 km/h (1 Bft) W-SW 244 0 min 0,000 mm 0,0 UV-I 30 W/m -7,8 C -6,7 C 4,8 km/h (1 Bft) 97,50 %
20.01.2016 08:35 -6,7 C 91 % 1019,3 hPa 0,0 l/m 2,4 km/h (1 Bft) SW 236 0 min 0,000 mm 0,0 UV-I 32 W/m -7,9 C -6,7 C 4,8 km/h (1 Bft) 98,31 %
20.01.2016 08:40 -6,9 C 91 % 1019,4 hPa 0,0 l/m 1,4 km/h (1 Bft) SW 236 0 min 0,000 mm 0,0 UV-I 42 W/m -8,1 C -6,9 C 3,2 km/h (1 Bft) 97,39 %
20.01.2016 08:45 -6,9 C 92 % 1019,3 hPa 0,0 l/m 2,5 km/h (1 Bft) SW 236 0 min 0,000 mm 0,0 UV-I 49 W/m -8,0 C -6,9 C 4,8 km/h (1 Bft) 98,20 %
20.01.2016 08:50 -6,8 C 92 % 1019,5 hPa 0,0 l/m 3,1 km/h (1 Bft) SW 233 0 min 0,000 mm 0,0 UV-I 56 W/m -7,9 C -6,8 C 4,8 km/h (1 Bft) 98,35 %
20.01.2016 08:55 -6,6 C 92 % 1019,6 hPa 0,0 l/m 4,0 km/h (1 Bft) S 184 0 min 0,000 mm 0,0 UV-I 68 W/m -7,7 C -6,6 C 6,4 km/h (2 Bft) 99,15 %
20.01.2016 09:00 -6,6 C 91 % 1019,4 hPa 0,0 l/m 3,9 km/h (1 Bft) S-SO 167 0 min 0,000 mm 0,0 UV-I 78 W/m -7,8 C -6,6 C 6,4 km/h (2 Bft) 100,00 %
20.01.2016 09:05 -6,3 C 92 % 1019,4 hPa 0,0 l/m 4,5 km/h (1 Bft) S 188 5 min 0,000 mm 0,0 UV-I 116 W/m -7,4 C -6,3 C 8,0 km/h (2 Bft) 100,00 %
20.01.2016 09:10 -6,0 C 91 % 1019,4 hPa 0,0 l/m 4,5 km/h (1 Bft) S-SW 199 5 min 0,000 mm 0,0 UV-I 105 W/m -7,2 C -6,0 C 8,0 km/h (2 Bft) 99,03 %
20.01.2016 09:15 -5,8 C 91 % 1019,5 hPa 0,0 l/m 2,4 km/h (1 Bft) W-SW 239 5 min 0,000 mm 0,0 UV-I 139 W/m -7,0 C -5,8 C 6,4 km/h (2 Bft) 99,22 %
20.01.2016 09:20 -5,8 C 90 % 1019,5 hPa 0,0 l/m 0,1 km/h (0 Bft) W-SW 239 5 min 0,000 mm 0,0 UV-I 138 W/m -7,2 C -5,8 C 1,6 km/h (1 Bft) 100,00 %
20.01.2016 09:25 -5,8 C 91 % 1019,5 hPa 0,0 l/m 0,0 km/h (0 Bft) W-SW 239 0 min 0,000 mm 0,0 UV-I 76 W/m -7,0 C -5,8 C 1,6 km/h (1 Bft) 98,41 %
20.01.2016 09:30 -5,7 C 91 % 1019,5 hPa 0,0 l/m 0,0 km/h (0 Bft) W-SW 239 0 min 0,000 mm 0,0 UV-I 99 W/m -6,9 C -5,7 C 1,6 km/h (1 Bft) 100,00 %
20.01.2016 09:35 -5,5 C 90 % 1019,6 hPa 0,0 l/m 0,6 km/h (0 Bft) W-SW 239 5 min 0,000 mm 0,0 UV-I 130 W/m -6,9 C -5,5 C 3,2 km/h (1 Bft) 100,00 %
20.01.2016 09:40 -5,4 C 90 % 1019,5 hPa 0,0 l/m 1,4 km/h (1 Bft) W-SW 239 5 min 0,000 mm 0,0 UV-I 152 W/m -6,8 C -5,4 C 3,2 km/h (1 Bft) 99,17 %
20.01.2016 09:45 -5,1 C 89 % 1019,5 hPa 0,0 l/m 2,3 km/h (1 Bft) W-SW 239 5 min 0,000 mm 0,0 UV-I 223 W/m -6,6 C -5,1 C 3,2 km/h (1 Bft) 100,00 %
20.01.2016 09:50 -5,0 C 89 % 1019,5 hPa 0,0 l/m 1,6 km/h (1 Bft) S-SW 193 5 min 0,000 mm 0,0 UV-I 250 W/m -6,5 C -5,0 C 4,8 km/h (1 Bft) 98,25 %
20.01.2016 09:55 -4,8 C 89 % 1019,6 hPa 0,0 l/m 2,8 km/h (1 Bft) SW 218 5 min 0,000 mm 0,0 UV-I 218 W/m -6,3 C -4,8 C 4,8 km/h (1 Bft) 96,85 %
20.01.2016 10:00 -4,6 C 88 % 1019,7 hPa 0,0 l/m 2,0 km/h (1 Bft) W-SW 254 5 min 0,051 mm 0,0 UV-I 219 W/m -6,3 C -4,6 C 4,8 km/h (1 Bft) 97,25 %
20.01.2016 10:05 -4,4 C 88 % 1019,8 hPa 0,0 l/m 1,1 km/h (1 Bft) W-SW 254 5 min 0,000 mm 0,0 UV-I 181 W/m -6,1 C -4,4 C 3,2 km/h (1 Bft) 98,15 %
20.01.2016 10:10 -4,2 C 87 % 1019,8 hPa 0,0 l/m 1,4 km/h (1 Bft) W-SW 257 5 min 0,000 mm 0,0 UV-I 193 W/m -6,0 C -4,2 C 3,2 km/h (1 Bft) 96,92 %
20.01.2016 10:15 -4,2 C 87 % 1019,8 hPa 0,0 l/m 1,2 km/h (1 Bft) W 278 5 min 0,000 mm 0,0 UV-I 214 W/m -6,0 C -4,2 C 4,8 km/h (1 Bft) 98,29 %
20.01.2016 10:20 -4,0 C 86 % 1019,8 hPa 0,0 l/m 0,9 km/h (0 Bft) W-NW 297 5 min 0,000 mm 0,0 UV-I 214 W/m -6,0 C -4,0 C 4,8 km/h (1 Bft) 99,15 %
20.01.2016 10:25 -3,8 C 86 % 1019,8 hPa 0,0 l/m 1,3 km/h (1 Bft) W-NW 290 5 min 0,000 mm 0,0 UV-I 265 W/m -5,8 C -3,8 C 6,4 km/h (2 Bft) 98,21 %
20.01.2016 10:30 -3,8 C 85 % 1019,8 hPa 0,0 l/m 1,1 km/h (1 Bft) W-NW 290 5 min 0,000 mm 0,0 UV-I 198 W/m -5,9 C -3,8 C 3,2 km/h (1 Bft) 99,19 %
20.01.2016 10:35 -3,9 C 85 % 1019,9 hPa 0,0 l/m 0,7 km/h (0 Bft) W-NW 293 0 min 0,000 mm 0,0 UV-I 174 W/m -6,0 C -3,9 C 3,2 km/h (1 Bft) 100,00 %
20.01.2016 10:40 -4,0 C 85 % 1019,8 hPa 0,0 l/m 2,1 km/h (1 Bft) NW 313 0 min 0,000 mm 0,0 UV-I 140 W/m -6,1 C -4,0 C 6,4 km/h (2 Bft) 99,15 %
20.01.2016 10:45 -4,1 C 85 % 1019,9 hPa 0,0 l/m 1,3 km/h (1 Bft) W-NW 296 0 min 0,000 mm 0,0 UV-I 158 W/m -6,2 C -4,1 C 4,8 km/h (1 Bft) 99,19 %
20.01.2016 10:50 -4,1 C 85 % 1019,9 hPa 0,0 l/m 0,3 km/h (0 Bft) W-NW 296 0 min 0,000 mm 0,1 UV-I 133 W/m -6,2 C -4,1 C 1,6 km/h (1 Bft) 100,00 %
20.01.2016 10:55 -4,2 C 85 % 1019,8 hPa 0,0 l/m 2,1 km/h (1 Bft) NW 313 5 min 0,000 mm 0,5 UV-I 192 W/m -6,3 C -4,2 C 8,0 km/h (2 Bft) 100,00 %
20.01.2016 11:00 -4,0 C 85 % 1019,9 hPa 0,0 l/m 1,0 km/h (0 Bft) NW 319 5 min 0,051 mm 0,5 UV-I 259 W/m -6,1 C -4,0 C 4,8 km/h (1 Bft) 100,00 %
20.01.2016 11:05 -3,8 C 84 % 1019,9 hPa 0,0 l/m 1,2 km/h (1 Bft) NW 312 5 min 0,000 mm 0,6 UV-I 330 W/m -6,1 C -3,8 C 3,2 km/h (1 Bft) 98,21 %
20.01.2016 11:10 -3,7 C 84 % 1019,9 hPa 0,0 l/m 2,5 km/h (1 Bft) NW 308 5 min 0,000 mm 0,6 UV-I 325 W/m -6,0 C -3,7 C 6,4 km/h (2 Bft) 100,00 %
20.01.2016 11:15 -3,6 C 84 % 1019,9 hPa 0,0 l/m 2,5 km/h (1 Bft) N-NW 327 5 min 0,000 mm 0,6 UV-I 368 W/m -5,9 C -3,6 C 8,0 km/h (2 Bft) 100,00 %
20.01.2016 11:20 -3,7 C 84 % 1019,8 hPa 0,0 l/m 3,6 km/h (1 Bft) W-NW 293 5 min 0,000 mm 0,6 UV-I 238 W/m -6,0 C -3,7 C 6,4 km/h (2 Bft) 98,26 %
20.01.2016 11:25 -3,6 C 84 % 1019,8 hPa 0,0 l/m 2,7 km/h (1 Bft) NW 311 5 min 0,000 mm 0,6 UV-I 364 W/m -5,9 C -3,6 C 6,4 km/h (2 Bft) 97,37 %
20.01.2016 11:30 -3,4 C 84 % 1019,8 hPa 0,0 l/m 2,4 km/h (1 Bft) N-NW 340 5 min 0,000 mm 0,6 UV-I 352 W/m -5,7 C -3,4 C 4,8 km/h (1 Bft) 96,69 %
20.01.2016 11:35 -3,4 C 84 % 1019,7 hPa 0,0 l/m 2,3 km/h (1 Bft) NW 323 5 min 0,000 mm 0,7 UV-I 355 W/m -5,7 C -3,4 C 6,4 km/h (2 Bft) 97,32 %
20.01.2016 11:40 -3,4 C 84 % 1019,7 hPa 0,0 l/m 1,1 km/h (1 Bft) NW 325 5 min 0,000 mm 0,7 UV-I 324 W/m -5,7 C -3,4 C 3,2 km/h (1 Bft) 97,56 %
20.01.2016 11:45 -3,2 C 83 % 1019,7 hPa 0,0 l/m 2,3 km/h (1 Bft) NW 316 5 min 0,000 mm 0,7 UV-I 349 W/m -5,7 C -3,2 C 6,4 km/h (2 Bft) 100,00 %
20.01.2016 11:50 -3,3 C 82 % 1019,7 hPa 0,0 l/m 3,6 km/h (1 Bft) NW 325 5 min 0,000 mm 0,6 UV-I 293 W/m -5,9 C -3,3 C 8,0 km/h (2 Bft) 97,17 %
20.01.2016 11:55 -3,1 C 82 % 1019,7 hPa 0,0 l/m 4,4 km/h (1 Bft) NW 315 5 min 0,000 mm 0,7 UV-I 380 W/m -5,7 C -3,1 C 12,9 km/h (3 Bft) 99,22 %
20.01.2016 12:00 -2,9 C 82 % 1019,6 hPa 0,0 l/m 3,2 km/h (1 Bft) N 349 5 min 0,101 mm 0,7 UV-I 390 W/m -5,5 C -2,9 C 11,3 km/h (2 Bft) 100,00 %
20.01.2016 12:05 -2,7 C 82 % 1019,6 hPa 0,0 l/m 2,4 km/h (1 Bft) W-NW 290 5 min 0,000 mm 0,7 UV-I 359 W/m -5,3 C -2,7 C 6,4 km/h (2 Bft) 100,00 %
20.01.2016 12:10 -2,6 C 81 % 1019,5 hPa 0,0 l/m 2,4 km/h (1 Bft) W-NW 294 5 min 0,000 mm 0,7 UV-I 319 W/m -5,4 C -2,6 C 4,8 km/h (1 Bft) 97,25 %
20.01.2016 12:15 -2,3 C 81 % 1019,5 hPa 0,0 l/m 2,4 km/h (1 Bft) NW 322 5 min 0,000 mm 0,7 UV-I 415 W/m -5,1 C -2,3 C 8,0 km/h (2 Bft) 100,00 %
20.01.2016 12:20 -2,4 C 80 % 1019,4 hPa 0,0 l/m 2,5 km/h (1 Bft) N-NW 333 5 min 0,000 mm 0,7 UV-I 313 W/m -5,4 C -2,4 C 6,4 km/h (2 Bft) 99,17 %
20.01.2016 12:25 -2,4 C 81 % 1019,4 hPa 0,0 l/m 3,0 km/h (1 Bft) W-NW 303 5 min 0,000 mm 0,6 UV-I 223 W/m -5,2 C -2,4 C 9,7 km/h (2 Bft) 100,00 %
20.01.2016 12:30 -2,2 C 81 % 1019,4 hPa 0,0 l/m 2,3 km/h (1 Bft) W 274 5 min 0,000 mm 0,7 UV-I 288 W/m -5,0 C -2,2 C 6,4 km/h (2 Bft) 99,08 %
20.01.2016 12:35 -2,1 C 80 % 1019,4 hPa 0,0 l/m 1,7 km/h (1 Bft) NW 306 5 min 0,000 mm 0,6 UV-I 264 W/m -5,1 C -2,1 C 6,4 km/h (2 Bft) 100,00 %
20.01.2016 12:40 -1,8 C 80 % 1019,3 hPa 0,0 l/m 2,4 km/h (1 Bft) W-NW 301 5 min 0,000 mm 0,7 UV-I 364 W/m -4,8 C -1,8 C 6,4 km/h (2 Bft) 98,26 %
20.01.2016 12:45 -1,8 C 79 % 1019,3 hPa 0,0 l/m 2,9 km/h (1 Bft) S-SW 202 5 min 0,000 mm 0,7 UV-I 328 W/m -4,9 C -1,8 C 6,4 km/h (2 Bft) 97,50 %
20.01.2016 12:50 -1,6 C 78 % 1019,3 hPa 0,0 l/m 2,8 km/h (1 Bft) W 281 5 min 0,000 mm 0,7 UV-I 350 W/m -4,9 C -1,6 C 9,7 km/h (2 Bft) 97,39 %
20.01.2016 12:55 -1,4 C 79 % 1019,3 hPa 0,0 l/m 2,0 km/h (1 Bft) NW 304 5 min 0,000 mm 0,7 UV-I 359 W/m -4,6 C -1,4 C 8,0 km/h (2 Bft) 95,83 %
20.01.2016 13:00 -1,4 C 79 % 1019,2 hPa 0,0 l/m 2,0 km/h (1 Bft) W 281 5 min 0,102 mm 0,7 UV-I 375 W/m -4,6 C -1,4 C 11,3 km/h (2 Bft) 97,32 %
20.01.2016 13:05 -1,3 C 78 % 1019,2 hPa 0,0 l/m 2,3 km/h (1 Bft) W-NW 288 5 min 0,000 mm 0,7 UV-I 381 W/m -4,6 C -1,3 C 6,4 km/h (2 Bft) 98,35 %
20.01.2016 13:10 -1,1 C 78 % 1019,1 hPa 0,0 l/m 2,5 km/h (1 Bft) SW 232 5 min 0,000 mm 0,6 UV-I 359 W/m -4,4 C -1,1 C 6,4 km/h (2 Bft) 99,10 %
20.01.2016 13:15 -0,9 C 77 % 1019,1 hPa 0,0 l/m 4,2 km/h (1 Bft) W 268 5 min 0,000 mm 0,6 UV-I 323 W/m -4,4 C -0,9 C 11,3 km/h (2 Bft) 100,00 %
20.01.2016 13:20 -0,9 C 76 % 1019,1 hPa 0,0 l/m 5,2 km/h (1 Bft) NW 309 5 min 0,000 mm 0,6 UV-I 310 W/m -4,6 C -0,9 C 9,7 km/h (2 Bft) 100,00 %
20.01.2016 13:25 -0,9 C 76 % 1019,1 hPa 0,0 l/m 5,0 km/h (1 Bft) W-SW 250 5 min 0,000 mm 0,6 UV-I 307 W/m -4,6 C -0,9 C 14,5 km/h (3 Bft) 99,19 %
20.01.2016 13:30 -0,9 C 77 % 1019,1 hPa 0,0 l/m 4,8 km/h (1 Bft) W 270 5 min 0,000 mm 0,6 UV-I 278 W/m -4,4 C -0,9 C 11,3 km/h (2 Bft) 98,25 %
20.01.2016 13:35 -0,8 C 76 % 1019,0 hPa 0,0 l/m 2,7 km/h (1 Bft) W-SW 240 5 min 0,000 mm 0,5 UV-I 212 W/m -4,5 C -0,8 C 4,8 km/h (1 Bft) 100,00 %
20.01.2016 13:40 -0,9 C 77 % 1018,9 hPa 0,0 l/m 2,8 km/h (1 Bft) W 268 5 min 0,000 mm 0,5 UV-I 267 W/m -4,4 C -0,9 C 6,4 km/h (2 Bft) 99,13 %
20.01.2016 13:45 -0,8 C 77 % 1018,9 hPa 0,0 l/m 1,9 km/h (1 Bft) W 271 5 min 0,000 mm 0,5 UV-I 259 W/m -4,3 C -0,8 C 6,4 km/h (2 Bft) 99,13 %
20.01.2016 13:50 -0,8 C 77 % 1018,8 hPa 0,0 l/m 6,2 km/h (2 Bft) W 277 5 min 0,000 mm 0,5 UV-I 280 W/m -4,3 C -0,8 C 11,3 km/h (2 Bft) 98,39 %
20.01.2016 13:55 -0,7 C 76 % 1018,8 hPa 0,0 l/m 5,1 km/h (1 Bft) N 360 5 min 0,000 mm 0,5 UV-I 295 W/m -4,4 C -0,7 C 12,9 km/h (3 Bft) 100,00 %
20.01.2016 14:00 -0,6 C 76 % 1018,8 hPa 0,0 l/m 4,8 km/h (1 Bft) W 270 5 min 0,102 mm 0,5 UV-I 276 W/m -4,3 C -0,6 C 11,3 km/h (2 Bft) 99,12 %
20.01.2016 14:05 -0,6 C 76 % 1018,8 hPa 0,0 l/m 2,6 km/h (1 Bft) W 266 5 min 0,000 mm 0,5 UV-I 279 W/m -4,3 C -0,6 C 3,2 km/h (1 Bft) 96,34 %
20.01.2016 14:15 -0,9 C 79 % 1018,9 hPa 0,0 l/m 3,3 km/h (1 Bft) W-NW 294 10 min 0,000 mm 0,0 UV-I 262 W/m -4,1 C -0,9 C 8,0 km/h (2 Bft) 97,36 %
20.01.2016 14:20 -1,0 C 79 % 1018,8 hPa 0,0 l/m 2,3 km/h (1 Bft) NW 311 5 min 0,000 mm 0,0 UV-I 249 W/m -4,2 C -1,0 C 6,4 km/h (2 Bft) 98,29 %
20.01.2016 14:25 -0,9 C 79 % 1018,8 hPa 0,0 l/m 1,6 km/h (1 Bft) W-NW 286 5 min 0,000 mm 0,0 UV-I 234 W/m -4,1 C -0,9 C 3,2 km/h (1 Bft) 96,69 %
20.01.2016 14:30 -1,1 C 79 % 1018,8 hPa 0,0 l/m 2,6 km/h (1 Bft) W-NW 297 5 min 0,000 mm 0,0 UV-I 233 W/m -4,3 C -1,1 C 6,4 km/h (2 Bft) 97,32 %
20.01.2016 14:35 -1,0 C 78 % 1018,8 hPa 0,0 l/m 3,1 km/h (1 Bft) NW 313 5 min 0,000 mm 0,0 UV-I 210 W/m -4,3 C -1,0 C 9,7 km/h (2 Bft) 98,94 %
20.01.2016 14:40 -1,3 C 79 % 1018,8 hPa 0,0 l/m 2,2 km/h (1 Bft) NW 304 0 min 0,000 mm 0,0 UV-I 107 W/m -4,5 C -1,3 C 4,8 km/h (1 Bft) 99,29 %
20.01.2016 14:45 -1,4 C 80 % 1018,9 hPa 0,0 l/m 1,9 km/h (1 Bft) W-NW 295 5 min 0,000 mm 0,0 UV-I 162 W/m -4,4 C -1,4 C 6,4 km/h (2 Bft) 100,00 %
20.01.2016 14:50 -1,4 C 80 % 1018,9 hPa 0,0 l/m 2,1 km/h (1 Bft) NW 304 0 min 0,000 mm 0,0 UV-I 102 W/m -4,4 C -1,4 C 4,8 km/h (1 Bft) 100,00 %
20.01.2016 14:55 -1,6 C 80 % 1018,8 hPa 0,0 l/m 1,5 km/h (1 Bft) NW 318 0 min 0,000 mm 0,0 UV-I 111 W/m -4,6 C -1,6 C 4,8 km/h (1 Bft) 99,17 %
20.01.2016 15:00 -1,6 C 80 % 1018,9 hPa 0,0 l/m 1,4 km/h (1 Bft) W-NW 296 5 min 0,076 mm 0,0 UV-I 124 W/m -4,6 C -1,6 C 4,8 km/h (1 Bft) 100,00 %
20.01.2016 15:05 -1,5 C 80 % 1018,9 hPa 0,0 l/m 3,2 km/h (1 Bft) W-NW 292 0 min 0,000 mm 0,0 UV-I 100 W/m -4,5 C -1,5 C 8,0 km/h (2 Bft) 99,24 %
20.01.2016 15:10 -1,8 C 80 % 1018,9 hPa 0,0 l/m 2,4 km/h (1 Bft) W-NW 290 0 min 0,000 mm 0,0 UV-I 100 W/m -4,8 C -1,8 C 6,4 km/h (2 Bft) 100,00 %
20.01.2016 15:15 -1,7 C 81 % 1018,9 hPa 0,0 l/m 3,2 km/h (1 Bft) N-NW 329 5 min 0,000 mm 0,0 UV-I 120 W/m -4,5 C -1,7 C 12,9 km/h (3 Bft) 100,00 %
20.01.2016 15:20 -1,6 C 81 % 1018,9 hPa 0,0 l/m 2,1 km/h (1 Bft) W 271 0 min 0,000 mm 0,0 UV-I 96 W/m -4,4 C -1,6 C 8,0 km/h (2 Bft) 98,26 %
20.01.2016 15:25 -1,7 C 81 % 1018,9 hPa 0,0 l/m 2,2 km/h (1 Bft) W-NW 295 0 min 0,000 mm 0,0 UV-I 92 W/m -4,5 C -1,7 C 9,7 km/h (2 Bft) 99,13 %
20.01.2016 15:30 -1,8 C 81 % 1018,9 hPa 0,0 l/m 3,0 km/h (1 Bft) W-NW 287 0 min 0,000 mm 0,0 UV-I 80 W/m -4,6 C -1,8 C 9,7 km/h (2 Bft) 97,62 %
20.01.2016 15:35 -1,8 C 81 % 1019,0 hPa 0,0 l/m 2,9 km/h (1 Bft) NW 317 5 min 0,000 mm 0,0 UV-I 88 W/m -4,6 C -1,8 C 9,7 km/h (2 Bft) 95,54 %
20.01.2016 15:40 -1,9 C 81 % 1019,0 hPa 0,0 l/m 3,3 km/h (1 Bft) NW 311 0 min 0,000 mm 0,0 UV-I 74 W/m -4,7 C -1,9 C 6,4 km/h (2 Bft) 97,32 %
20.01.2016 15:45 -1,9 C 81 % 1019,0 hPa 0,0 l/m 3,0 km/h (1 Bft) W-SW 257 0 min 0,000 mm 0,0 UV-I 62 W/m -4,7 C -1,9 C 11,3 km/h (2 Bft) 97,44 %
20.01.2016 15:50 -2,0 C 81 % 1018,9 hPa 0,0 l/m 3,2 km/h (1 Bft) W 278 0 min 0,000 mm 0,0 UV-I 48 W/m -4,8 C -2,0 C 9,7 km/h (2 Bft) 96,85 %
20.01.2016 15:55 -2,1 C 81 % 1019,1 hPa 0,0 l/m 4,9 km/h (1 Bft) W 265 0 min 0,000 mm 0,0 UV-I 42 W/m -4,9 C -2,1 C 12,9 km/h (3 Bft) 98,29 %
20.01.2016 16:00 -2,2 C 82 % 1019,0 hPa 0,0 l/m 3,2 km/h (1 Bft) W 265 0 min 0,025 mm 0,0 UV-I 38 W/m -4,8 C -2,2 C 9,7 km/h (2 Bft) 99,15 %
20.01.2016 16:05 -2,2 C 82 % 1019,0 hPa 0,0 l/m 2,5 km/h (1 Bft) W-NW 290 0 min 0,000 mm 0,0 UV-I 42 W/m -4,8 C -2,2 C 6,4 km/h (2 Bft) 100,00 %
20.01.2016 16:10 -2,2 C 82 % 1019,0 hPa 0,0 l/m 4,8 km/h (1 Bft) W 270 5 min 0,000 mm 0,0 UV-I 42 W/m -4,8 C -2,2 C 11,3 km/h (2 Bft) 97,37 %
20.01.2016 16:15 -2,2 C 81 % 1019,1 hPa 0,0 l/m 3,9 km/h (1 Bft) W 281 5 min 0,000 mm 0,0 UV-I 42 W/m -5,0 C -2,2 C 9,7 km/h (2 Bft) 99,13 %
20.01.2016 16:20 -2,2 C 81 % 1019,1 hPa 0,0 l/m 2,9 km/h (1 Bft) W-NW 297 5 min 0,000 mm 0,0 UV-I 32 W/m -5,0 C -2,2 C 11,3 km/h (2 Bft) 100,00 %
20.01.2016 16:25 -2,3 C 82 % 1019,1 hPa 0,0 l/m 4,1 km/h (1 Bft) W 273 5 min 0,000 mm 0,0 UV-I 24 W/m -4,9 C -2,3 C 11,3 km/h (2 Bft) 98,37 %
20.01.2016 16:30 -2,3 C 82 % 1019,1 hPa 0,0 l/m 3,8 km/h (1 Bft) W 273 5 min 0,000 mm 0,0 UV-I 23 W/m -4,9 C -2,3 C 6,4 km/h (2 Bft) 98,26 %
20.01.2016 16:35 -2,4 C 81 % 1019,2 hPa 0,0 l/m 1,6 km/h (1 Bft) W 273 0 min 0,000 mm 0,0 UV-I 20 W/m -5,2 C -2,4 C 4,8 km/h (1 Bft) 99,13 %
20.01.2016 16:40 -2,4 C 82 % 1019,1 hPa 0,0 l/m 1,7 km/h (1 Bft) W 275 0 min 0,000 mm 0,0 UV-I 14 W/m -5,0 C -2,4 C 6,4 km/h (2 Bft) 100,00 %
20.01.2016 16:45 -2,5 C 82 % 1019,2 hPa 0,0 l/m 2,4 km/h (1 Bft) W 275 0 min 0,000 mm 0,0 UV-I 10 W/m -5,1 C -2,5 C 6,4 km/h (2 Bft) 100,00 %
20.01.2016 16:50 -2,6 C 83 % 1019,2 hPa 0,0 l/m 0,7 km/h (0 Bft) W 275 0 min 0,000 mm 0,0 UV-I 7 W/m -5,1 C -2,6 C 1,6 km/h (1 Bft) 100,00 %
20.01.2016 16:55 -2,6 C 82 % 1019,2 hPa 0,0 l/m 1,9 km/h (1 Bft) W 273 0 min 0,000 mm 0,0 UV-I 2 W/m -5,2 C -2,6 C 4,8 km/h (1 Bft) 100,00 %
20.01.2016 17:00 -2,7 C 83 % 1019,2 hPa 0,0 l/m 3,5 km/h (1 Bft) W-SW 238 0 min 0,000 mm 0,0 UV-I 0 W/m -5,2 C -2,7 C 12,9 km/h (3 Bft) 98,21 %
20.01.2016 17:05 -2,7 C 82 % 1019,2 hPa 0,0 l/m 6,7 km/h (2 Bft) NW 310 0 min 0,000 mm 0,0 UV-I 0 W/m -5,3 C -3,0 C 12,9 km/h (3 Bft) 100,00 %
20.01.2016 17:10 -2,8 C 82 % 1019,3 hPa 0,0 l/m 5,2 km/h (1 Bft) W-SW 251 0 min 0,000 mm 0,0 UV-I 0 W/m -5,4 C -2,8 C 11,3 km/h (2 Bft) 100,00 %
20.01.2016 17:15 -2,8 C 83 % 1019,3 hPa 0,0 l/m 3,1 km/h (1 Bft) W-NW 293 0 min 0,000 mm 0,0 UV-I 0 W/m -5,3 C -2,8 C 6,4 km/h (2 Bft) 98,31 %
20.01.2016 17:20 -3,0 C 83 % 1019,3 hPa 0,0 l/m 3,5 km/h (1 Bft) W-NW 299 0 min 0,000 mm 0,0 UV-I 0 W/m -5,5 C -3,0 C 6,4 km/h (2 Bft) 99,05 %
20.01.2016 17:25 -3,1 C 83 % 1019,4 hPa 0,0 l/m 3,3 km/h (1 Bft) W 276 0 min 0,000 mm 0,0 UV-I 0 W/m -5,6 C -3,1 C 9,7 km/h (2 Bft) 97,58 %
20.01.2016 17:30 -3,1 C 84 % 1019,4 hPa 0,0 l/m 3,0 km/h (1 Bft) W 274 0 min 0,000 mm 0,0 UV-I 0 W/m -5,4 C -3,1 C 9,7 km/h (2 Bft) 97,25 %
20.01.2016 17:35 -3,1 C 84 % 1019,4 hPa 0,0 l/m 2,1 km/h (1 Bft) SW 226 0 min 0,000 mm 0,0 UV-I 0 W/m -5,4 C -3,1 C 4,8 km/h (1 Bft) 95,93 %
20.01.2016 17:40 -3,1 C 84 % 1019,5 hPa 0,0 l/m 3,5 km/h (1 Bft) W 263 0 min 0,000 mm 0,0 UV-I 0 W/m -5,4 C -3,1 C 4,8 km/h (1 Bft) 97,52 %
20.01.2016 17:45 -3,1 C 83 % 1019,4 hPa 0,0 l/m 4,5 km/h (1 Bft) W 264 0 min 0,000 mm 0,0 UV-I 0 W/m -5,6 C -3,1 C 12,9 km/h (3 Bft) 96,33 %
20.01.2016 17:50 -3,1 C 83 % 1019,4 hPa 0,0 l/m 6,5 km/h (2 Bft) W 259 0 min 0,000 mm 0,0 UV-I 0 W/m -5,6 C -3,2 C 11,3 km/h (2 Bft) 96,58 %
20.01.2016 17:55 -3,1 C 83 % 1019,4 hPa 0,0 l/m 7,8 km/h (2 Bft) W 265 0 min 0,000 mm 0,0 UV-I 0 W/m -5,6 C -4,7 C 16,1 km/h (3 Bft) 98,26 %
20.01.2016 18:00 -3,1 C 83 % 1019,4 hPa 0,0 l/m 6,7 km/h (2 Bft) W-SW 254 0 min 0,000 mm 0,0 UV-I 0 W/m -5,6 C -3,4 C 14,5 km/h (3 Bft) 97,39 %
20.01.2016 18:05 -3,1 C 84 % 1019,4 hPa 0,0 l/m 6,7 km/h (2 Bft) SW 232 0 min 0,000 mm 0,0 UV-I 0 W/m -5,4 C -3,4 C 11,3 km/h (2 Bft) 99,22 %
20.01.2016 18:10 -3,2 C 84 % 1019,4 hPa 0,0 l/m 5,7 km/h (1 Bft) W-SW 244 0 min 0,000 mm 0,0 UV-I 0 W/m -5,5 C -3,2 C 9,7 km/h (2 Bft) 99,17 %
20.01.2016 18:15 -3,2 C 84 % 1019,4 hPa 0,0 l/m 5,6 km/h (1 Bft) W-SW 240 0 min 0,000 mm 0,0 UV-I 0 W/m -5,5 C -3,2 C 9,7 km/h (2 Bft) 99,06 %
20.01.2016 18:20 -3,2 C 84 % 1019,4 hPa 0,0 l/m 5,5 km/h (1 Bft) W-SW 242 0 min 0,000 mm 0,0 UV-I 0 W/m -5,5 C -3,2 C 9,7 km/h (2 Bft) 98,39 %
20.01.2016 18:25 -3,2 C 85 % 1019,5 hPa 0,0 l/m 7,4 km/h (2 Bft) W 275 0 min 0,000 mm 0,0 UV-I 0 W/m -5,4 C -4,3 C 11,3 km/h (2 Bft) 99,08 %
20.01.2016 18:30 -3,3 C 85 % 1019,4 hPa 0,0 l/m 4,1 km/h (1 Bft) W-NW 291 0 min 0,000 mm 0,0 UV-I 0 W/m -5,5 C -3,3 C 6,4 km/h (2 Bft) 100,00 %
20.01.2016 18:35 -3,3 C 85 % 1019,4 hPa 0,0 l/m 2,3 km/h (1 Bft) W-NW 294 0 min 0,000 mm 0,0 UV-I 0 W/m -5,5 C -3,3 C 4,8 km/h (1 Bft) 99,08 %
20.01.2016 18:40 -3,4 C 85 % 1019,4 hPa 0,0 l/m 2,2 km/h (1 Bft) W-NW 294 0 min 0,000 mm 0,0 UV-I 0 W/m -5,5 C -3,4 C 4,8 km/h (1 Bft) 100,00 %
20.01.2016 18:45 -3,5 C 86 % 1019,4 hPa 0,0 l/m 1,8 km/h (1 Bft) W-NW 293 0 min 0,000 mm 0,0 UV-I 0 W/m -5,5 C -3,5 C 4,8 km/h (1 Bft) 98,17 %
20.01.2016 18:50 -3,6 C 86 % 1019,4 hPa 0,0 l/m 2,1 km/h (1 Bft) W-NW 293 0 min 0,000 mm 0,0 UV-I 0 W/m -5,6 C -3,6 C 3,2 km/h (1 Bft) 100,00 %
20.01.2016 18:55 -3,6 C 87 % 1019,4 hPa 0,0 l/m 2,9 km/h (1 Bft) W 276 0 min 0,000 mm 0,0 UV-I 0 W/m -5,4 C -3,6 C 6,4 km/h (2 Bft) 100,00 %
20.01.2016 19:00 -3,7 C 86 % 1019,4 hPa 0,0 l/m 2,8 km/h (1 Bft) W 273 0 min 0,000 mm 0,0 UV-I 0 W/m -5,7 C -3,7 C 4,8 km/h (1 Bft) 96,52 %
20.01.2016 19:05 -3,6 C 86 % 1019,5 hPa 0,0 l/m 3,7 km/h (1 Bft) W 273 0 min 0,000 mm 0,0 UV-I 0 W/m -5,6 C -3,6 C 8,0 km/h (2 Bft) 98,41 %
20.01.2016 19:10 -3,6 C 86 % 1019,5 hPa 0,0 l/m 2,6 km/h (1 Bft) W 275 0 min 0,000 mm 0,0 UV-I 0 W/m -5,6 C -3,6 C 4,8 km/h (1 Bft) 100,00 %
20.01.2016 19:15 -3,4 C 86 % 1019,5 hPa 0,0 l/m 3,3 km/h (1 Bft) W 274 0 min 0,000 mm 0,0 UV-I 0 W/m -5,4 C -3,4 C 4,8 km/h (1 Bft) 99,11 %
20.01.2016 19:20 -3,4 C 86 % 1019,5 hPa 0,0 l/m 2,3 km/h (1 Bft) W 274 0 min 0,000 mm 0,0 UV-I 0 W/m -5,4 C -3,4 C 4,8 km/h (1 Bft) 100,00 %
20.01.2016 19:25 -3,5 C 86 % 1019,6 hPa 0,0 l/m 1,9 km/h (1 Bft) W 274 0 min 0,000 mm 0,0 UV-I 0 W/m -5,5 C -3,5 C 3,2 km/h (1 Bft) 99,17 %
20.01.2016 19:30 -3,6 C 86 % 1019,5 hPa 0,0 l/m 2,0 km/h (1 Bft) W 274 0 min 0,000 mm 0,0 UV-I 0 W/m -5,6 C -3,6 C 3,2 km/h (1 Bft) 96,33 %
20.01.2016 19:35 -3,7 C 86 % 1019,5 hPa 0,0 l/m 3,3 km/h (1 Bft) W 273 0 min 0,000 mm 0,0 UV-I 0 W/m -5,7 C -3,7 C 4,8 km/h (1 Bft) 96,49 %
20.01.2016 19:40 -3,8 C 86 % 1019,5 hPa 0,0 l/m 3,1 km/h (1 Bft) SW 231 0 min 0,000 mm 0,0 UV-I 0 W/m -5,8 C -3,8 C 4,8 km/h (1 Bft) 97,52 %
20.01.2016 19:45 -3,9 C 87 % 1019,5 hPa 0,0 l/m 3,9 km/h (1 Bft) SW 223 0 min 0,000 mm 0,0 UV-I 0 W/m -5,7 C -3,9 C 6,4 km/h (2 Bft) 96,58 %
20.01.2016 19:50 -3,9 C 87 % 1019,5 hPa 0,0 l/m 4,6 km/h (1 Bft) S-SW 212 0 min 0,000 mm 0,0 UV-I 0 W/m -5,7 C -3,9 C 6,4 km/h (2 Bft) 97,46 %
20.01.2016 19:55 -4,0 C 88 % 1019,5 hPa 0,0 l/m 4,2 km/h (1 Bft) SW 234 0 min 0,000 mm 0,0 UV-I 0 W/m -5,7 C -4,0 C 6,4 km/h (2 Bft) 98,31 %
20.01.2016 20:00 -4,1 C 88 % 1019,5 hPa 0,0 l/m 4,6 km/h (1 Bft) SW 221 0 min 0,000 mm 0,0 UV-I 0 W/m -5,8 C -4,1 C 6,4 km/h (2 Bft) 95,61 %
20.01.2016 20:05 -4,2 C 88 % 1019,6 hPa 0,0 l/m 3,0 km/h (1 Bft) SW 221 0 min 0,000 mm 0,0 UV-I 0 W/m -5,9 C -4,2 C 4,8 km/h (1 Bft) 100,00 %
20.01.2016 20:10 -4,2 C 88 % 1019,6 hPa 0,0 l/m 2,5 km/h (1 Bft) SW 228 0 min 0,000 mm 0,0 UV-I 0 W/m -5,9 C -4,2 C 4,8 km/h (1 Bft) 97,39 %
20.01.2016 20:15 -4,3 C 88 % 1019,6 hPa 0,0 l/m 0,9 km/h (0 Bft) SW 228 0 min 0,000 mm 0,0 UV-I 0 W/m -6,0 C -4,3 C 3,2 km/h (1 Bft) 99,15 %
20.01.2016 20:20 -4,4 C 89 % 1019,7 hPa 0,0 l/m 0,6 km/h (0 Bft) W-SW 241 0 min 0,000 mm 0,0 UV-I 0 W/m -5,9 C -4,4 C 3,2 km/h (1 Bft) 99,15 %
20.01.2016 20:25 -4,3 C 89 % 1019,6 hPa 0,0 l/m 1,9 km/h (1 Bft) W 274 0 min 0,000 mm 0,0 UV-I 0 W/m -5,8 C -4,3 C 3,2 km/h (1 Bft) 100,00 %
20.01.2016 20:30 -4,2 C 90 % 1019,7 hPa 0,0 l/m 5,2 km/h (1 Bft) W 261 0 min 0,000 mm 0,0 UV-I 0 W/m -5,6 C -4,2 C 11,3 km/h (2 Bft) 100,00 %
20.01.2016 20:35 -3,9 C 89 % 1019,6 hPa 0,0 l/m 5,7 km/h (1 Bft) W 259 0 min 0,000 mm 0,0 UV-I 0 W/m -5,4 C -3,9 C 9,7 km/h (2 Bft) 100,00 %
20.01.2016 20:40 -3,7 C 89 % 1019,7 hPa 0,0 l/m 4,9 km/h (1 Bft) W 269 0 min 0,000 mm 0,0 UV-I 0 W/m -5,2 C -3,7 C 9,7 km/h (2 Bft) 99,15 %
20.01.2016 20:45 -3,8 C 88 % 1019,7 hPa 0,0 l/m 3,2 km/h (1 Bft) W 270 0 min 0,000 mm 0,0 UV-I 0 W/m -5,5 C -3,8 C 4,8 km/h (1 Bft) 99,21 %
20.01.2016 20:50 -3,7 C 89 % 1019,7 hPa 0,0 l/m 4,5 km/h (1 Bft) W 265 0 min 0,000 mm 0,0 UV-I 0 W/m -5,2 C -3,7 C 6,4 km/h (2 Bft) 100,00 %
20.01.2016 20:55 -3,6 C 88 % 1019,7 hPa 0,0 l/m 5,7 km/h (1 Bft) W 260 0 min 0,000 mm 0,0 UV-I 0 W/m -5,3 C -3,6 C 11,3 km/h (2 Bft) 100,00 %
20.01.2016 21:00 -3,6 C 88 % 1019,6 hPa 0,0 l/m 7,2 km/h (2 Bft) W-SW 252 0 min 0,000 mm 0,0 UV-I 0 W/m -5,3 C -4,5 C 11,3 km/h (2 Bft) 99,15 %
20.01.2016 21:05 -3,4 C 88 % 1019,6 hPa 0,0 l/m 8,3 km/h (2 Bft) W-SW 251 0 min 0,000 mm 0,0 UV-I 0 W/m -5,1 C -5,5 C 12,9 km/h (3 Bft) 99,15 %
20.01.2016 21:10 -3,4 C 88 % 1019,7 hPa 0,0 l/m 8,6 km/h (2 Bft) W-SW 257 0 min 0,000 mm 0,0 UV-I 0 W/m -5,1 C -5,8 C 12,9 km/h (3 Bft) 98,25 %
20.01.2016 21:15 -3,4 C 87 % 1019,8 hPa 0,0 l/m 7,6 km/h (2 Bft) W-SW 255 0 min 0,000 mm 0,0 UV-I 0 W/m -5,2 C -4,8 C 12,9 km/h (3 Bft) 99,19 %
20.01.2016 21:20 -3,4 C 87 % 1019,7 hPa 0,0 l/m 8,9 km/h (2 Bft) W-SW 250 0 min 0,000 mm 0,0 UV-I 0 W/m -5,2 C -6,2 C 12,9 km/h (3 Bft) 99,12 %
20.01.2016 21:25 -3,3 C 87 % 1019,6 hPa 0,0 l/m 9,2 km/h (2 Bft) W-SW 247 0 min 0,000 mm 0,0 UV-I 0 W/m -5,1 C -6,3 C 12,9 km/h (3 Bft) 100,00 %
20.01.2016 21:30 -3,3 C 87 % 1019,7 hPa 0,0 l/m 9,4 km/h (2 Bft) W-SW 250 0 min 0,000 mm 0,0 UV-I 0 W/m -5,1 C -6,5 C 14,5 km/h (3 Bft) 98,33 %
20.01.2016 21:35 -3,3 C 87 % 1019,7 hPa 0,0 l/m 8,3 km/h (2 Bft) W 260 0 min 0,000 mm 0,0 UV-I 0 W/m -5,1 C -5,4 C 12,9 km/h (3 Bft) 99,13 %
20.01.2016 21:40 -3,4 C 88 % 1019,7 hPa 0,0 l/m 6,3 km/h (2 Bft) W-SW 246 0 min 0,000 mm 0,0 UV-I 0 W/m -5,1 C -3,4 C 12,9 km/h (3 Bft) 97,39 %
20.01.2016 21:45 -3,6 C 88 % 1019,7 hPa 0,0 l/m 8,2 km/h (2 Bft) S-SW 211 0 min 0,000 mm 0,0 UV-I 0 W/m -5,3 C -5,6 C 12,9 km/h (3 Bft) 97,50 %
20.01.2016 21:50 -3,6 C 88 % 1019,7 hPa 0,0 l/m 9,1 km/h (2 Bft) SW 217 0 min 0,000 mm 0,0 UV-I 0 W/m -5,3 C -6,6 C 12,9 km/h (3 Bft) 96,33 %
20.01.2016 21:55 -3,7 C 88 % 1019,7 hPa 0,0 l/m 9,0 km/h (2 Bft) SW 234 0 min 0,000 mm 0,0 UV-I 0 W/m -5,4 C -6,6 C 14,5 km/h (3 Bft) 97,46 %
20.01.2016 22:00 -3,7 C 89 % 1019,7 hPa 0,0 l/m 8,2 km/h (2 Bft) SW 221 0 min 0,000 mm 0,0 UV-I 0 W/m -5,2 C -5,7 C 12,9 km/h (3 Bft) 97,58 %
20.01.2016 22:05 -3,7 C 89 % 1019,7 hPa 0,0 l/m 7,5 km/h (2 Bft) W-SW 246 0 min 0,000 mm 0,0 UV-I 0 W/m -5,2 C -5,0 C 12,9 km/h (3 Bft) 97,50 %
20.01.2016 22:10 -3,6 C 89 % 1019,8 hPa 0,0 l/m 6,5 km/h (2 Bft) W 259 0 min 0,000 mm 0,0 UV-I 0 W/m -5,1 C -3,7 C 12,9 km/h (3 Bft) 97,17 %
20.01.2016 22:15 -3,6 C 89 % 1019,8 hPa 0,0 l/m 5,6 km/h (1 Bft) W 272 0 min 0,000 mm 0,0 UV-I 0 W/m -5,1 C -3,6 C 11,3 km/h (2 Bft) 97,56 %
20.01.2016 22:20 -3,6 C 88 % 1019,8 hPa 0,0 l/m 4,5 km/h (1 Bft) W 266 0 min 0,000 mm 0,0 UV-I 0 W/m -5,3 C -3,6 C 8,0 km/h (2 Bft) 97,46 %
20.01.2016 22:25 -3,6 C 88 % 1019,8 hPa 0,0 l/m 5,0 km/h (1 Bft) W-SW 249 0 min 0,000 mm 0,0 UV-I 0 W/m -5,3 C -3,6 C 9,7 km/h (2 Bft) 98,25 %
20.01.2016 22:30 -3,5 C 88 % 1019,9 hPa 0,0 l/m 6,2 km/h (2 Bft) W-SW 251 0 min 0,000 mm 0,0 UV-I 0 W/m -5,2 C -3,5 C 11,3 km/h (2 Bft) 98,35 %
20.01.2016 22:35 -3,5 C 88 % 1019,9 hPa 0,0 l/m 7,8 km/h (2 Bft) W 275 0 min 0,000 mm 0,0 UV-I 0 W/m -5,2 C -5,1 C 12,9 km/h (3 Bft) 99,11 %
20.01.2016 22:40 -3,5 C 88 % 1019,9 hPa 0,0 l/m 6,8 km/h (2 Bft) W 259 0 min 0,000 mm 0,0 UV-I 0 W/m -5,2 C -3,9 C 11,3 km/h (2 Bft) 99,19 %
20.01.2016 22:45 -3,8 C 87 % 1020,0 hPa 0,0 l/m 2,8 km/h (1 Bft) NW 324 0 min 0,000 mm 0,0 UV-I 0 W/m -5,6 C -3,8 C 6,4 km/h (2 Bft) 100,00 %
20.01.2016 22:50 -4,3 C 87 % 1020,0 hPa 0,0 l/m 1,8 km/h (1 Bft) N-NW 342 0 min 0,000 mm 0,0 UV-I 0 W/m -6,1 C -4,3 C 4,8 km/h (1 Bft) 99,11 %
20.01.2016 22:55 -4,7 C 89 % 1020,1 hPa 0,0 l/m 0,7 km/h (0 Bft) N-NW 346 0 min 0,000 mm 0,0 UV-I 0 W/m -6,2 C -4,7 C 3,2 km/h (1 Bft) 100,00 %
20.01.2016 23:00 -4,9 C 89 % 1020,1 hPa 0,0 l/m 0,8 km/h (0 Bft) N 11 0 min 0,000 mm 0,0 UV-I 0 W/m -6,4 C -4,9 C 3,2 km/h (1 Bft) 99,13 %
20.01.2016 23:05 -5,1 C 90 % 1020,2 hPa 0,0 l/m 1,5 km/h (1 Bft) N 11 0 min 0,000 mm 0,0 UV-I 0 W/m -6,5 C -5,1 C 3,2 km/h (1 Bft) 100,00 %
20.01.2016 23:10 -5,1 C 90 % 1020,1 hPa 0,0 l/m 1,4 km/h (1 Bft) N 11 0 min 0,000 mm 0,0 UV-I 0 W/m -6,5 C -5,1 C 3,2 km/h (1 Bft) 99,15 %
20.01.2016 23:15 -5,1 C 90 % 1020,2 hPa 0,0 l/m 2,1 km/h (1 Bft) N 11 0 min 0,000 mm 0,0 UV-I 0 W/m -6,5 C -5,1 C 4,8 km/h (1 Bft) 99,11 %
20.01.2016 23:20 -5,1 C 91 % 1020,3 hPa 0,0 l/m 2,4 km/h (1 Bft) N 11 0 min 0,000 mm 0,0 UV-I 0 W/m -6,3 C -5,1 C 4,8 km/h (1 Bft) 100,00 %
20.01.2016 23:25 -5,0 C 90 % 1020,3 hPa 0,0 l/m 0,6 km/h (0 Bft) N 11 0 min 0,000 mm 0,0 UV-I 0 W/m -6,4 C -5,0 C 3,2 km/h (1 Bft) 100,00 %
20.01.2016 23:30 -5,1 C 90 % 1020,4 hPa 0,0 l/m 0,0 km/h (0 Bft) N 11 0 min 0,000 mm 0,0 UV-I 0 W/m -6,5 C -5,1 C 1,6 km/h (1 Bft) 96,49 %
20.01.2016 23:35 -5,1 C 91 % 1020,3 hPa 0,0 l/m 0,7 km/h (0 Bft) N-NW 348 0 min 0,000 mm 0,0 UV-I 0 W/m -6,3 C -5,1 C 3,2 km/h (1 Bft) 100,00 %
20.01.2016 23:40 -4,9 C 91 % 1020,4 hPa 0,0 l/m 0,3 km/h (0 Bft) N-NW 348 0 min 0,000 mm 0,0 UV-I 0 W/m -6,1 C -4,9 C 1,6 km/h (1 Bft) 98,39 %
20.01.2016 23:45 -4,9 C 91 % 1020,4 hPa 0,0 l/m 0,8 km/h (0 Bft) N-NW 348 0 min 0,000 mm 0,0 UV-I 0 W/m -6,1 C -4,9 C 3,2 km/h (1 Bft) 96,58 %
20.01.2016 23:50 -4,8 C 91 % 1020,3 hPa 0,0 l/m 1,2 km/h (1 Bft) SW 231 0 min 0,000 mm 0,0 UV-I 0 W/m -6,0 C -4,8 C 4,8 km/h (1 Bft) 97,46 %
20.01.2016 23:55 -4,8 C 91 % 1020,1 hPa 0,0 l/m 4,9 km/h (1 Bft) S-SW 209 0 min 0,000 mm 0,0 UV-I 0 W/m -6,0 C -4,8 C 11,3 km/h (2 Bft) 98,11 %
_ Min-Zeit 08:40 13:20 01:30 - 04:35 - - - - - - 08:40 08:40 04:45 00:30
Minimum _ -6,9 C 76 % 1017,5 hPa - 0,0 km/h (0 Bft) - - - - - - -8,1 C -6,9 C 0,0 km/h (0 Bft) 94,92 %
_ Max-Zeit 14:00 04:50 23:30 00:00 21:30 - - 14:15 13:00 11:35 12:15 14:15 14:00 17:55 00:05
Maximum _ -0,6 C 92 % 1020,4 hPa 0,0 l/m 9,4 km/h
W-SW (2 Bft)
- - 10 min 0,102 mm 0,7 UV-I 415 W/m -4,1 C -0,6 C 16,1 km/h
W (3 Bft)
100,00 %
Durchschnitt _ -4,2 C 86 % 1019,0 hPa #0,0 l/m 2,9 km/h (1 Bft) W - #5:50 h #0,508 mm 0,6 UV-I 178 W/m -6,1 C -4,3 C 6,4 km/h (2 Bft) 98,59 %